N178T KBID-KACK

Flight info

Callsign N178T
Flight time 0h 34m
Altitude 3500
Route EASTBOUND
Aircraft TB21/L-SDRY/S

Departure

Time 2026-04-21 13:03
Airport Block Island State Airport (KBID)

Arrival

Time 2026-04-21 13:38
Airport Nantucket Memorial Airport (KACK)
Time Latitude Longitude Altitude Speed Heading
2026-04-21 13:00 41.16880 -71.57965 120 ft 0 kts 354°
2026-04-21 13:01 41.16888 -71.57972 120 ft 3 kts 301°
2026-04-21 13:02 41.16872 -71.58023 121 ft 8 kts 231°
2026-04-21 13:02 41.16853 -71.58112 121 ft 12 kts 266°
2026-04-21 13:02 41.16788 -71.58100 122 ft 27 kts 82°
2026-04-21 13:03 41.16837 -71.57567 158 ft 73 kts 74°
2026-04-21 13:03 41.16920 -71.56891 337 ft 77 kts 73°
2026-04-21 13:03 41.17068 -71.56262 709 ft 65 kts 58°
2026-04-21 13:03 41.17357 -71.55810 941 ft 71 kts 22°
2026-04-21 13:04 41.17852 -71.55788 1239 ft 64 kts
2026-04-21 13:04 41.18332 -71.55569 1365 ft 83 kts 42°
2026-04-21 13:04 41.18608 -71.54890 1703 ft 76 kts 63°
2026-04-21 13:04 41.18818 -71.54266 1925 ft 84 kts 64°
2026-04-21 13:05 41.18998 -71.53534 2280 ft 76 kts 66°
2026-04-21 13:05 41.19217 -71.52878 2460 ft 87 kts 60°
2026-04-21 13:05 41.19421 -71.52160 2820 ft 78 kts 68°
2026-04-21 13:05 41.19580 -71.51422 2993 ft 91 kts 72°
2026-04-21 13:06 41.19678 -71.50560 3175 ft 102 kts 82°
2026-04-21 13:06 41.19704 -71.49544 3268 ft 118 kts 86°
2026-04-21 13:06 41.19711 -71.48416 3355 ft 129 kts 87°
2026-04-21 13:06 41.19690 -71.47173 3396 ft 138 kts 86°
2026-04-21 13:07 41.19680 -71.45886 3465 ft 142 kts 86°
2026-04-21 13:07 41.19658 -71.44546 3540 ft 140 kts 88°
2026-04-21 13:07 41.19623 -71.43314 3641 ft 132 kts 86°
2026-04-21 13:07 41.19609 -71.42062 3531 ft 140 kts 88°
2026-04-21 13:08 41.19609 -71.40778 3535 ft 138 kts 84°
2026-04-21 13:08 41.19643 -71.39497 3525 ft 137 kts 82°
2026-04-21 13:08 41.19729 -71.38246 3508 ft 137 kts 79°
2026-04-21 13:08 41.19846 -71.36976 3494 ft 136 kts 78°
2026-04-21 13:09 41.19986 -71.35731 3492 ft 135 kts 76°
2026-04-21 13:09 41.20152 -71.34507 3470 ft 135 kts 75°
2026-04-21 13:09 41.20348 -71.33282 3481 ft 133 kts 73°
2026-04-21 13:09 41.20563 -71.32089 3494 ft 133 kts 73°
2026-04-21 13:10 41.20770 -71.30873 3472 ft 134 kts 74°
2026-04-21 13:10 41.20966 -71.29659 3481 ft 133 kts 75°
2026-04-21 13:10 41.21178 -71.28431 3452 ft 134 kts 73°
2026-04-21 13:10 41.21412 -71.27209 3460 ft 133 kts 72°
2026-04-21 13:11 41.21680 -71.26009 3440 ft 134 kts 69°
2026-04-21 13:11 41.21991 -71.24808 3448 ft 132 kts 67°
2026-04-21 13:11 41.22337 -71.23650 3444 ft 132 kts 64°
2026-04-21 13:11 41.22713 -71.22463 3416 ft 134 kts 68°
2026-04-21 13:12 41.22917 -71.21233 3458 ft 132 kts 79°
2026-04-21 13:12 41.22980 -71.19987 3474 ft 132 kts 82°
2026-04-21 13:12 41.23037 -71.18754 3470 ft 133 kts 82°
2026-04-21 13:12 41.23117 -71.17496 3476 ft 132 kts 80°
2026-04-21 13:13 41.23239 -71.16260 3474 ft 132 kts 77°
2026-04-21 13:13 41.23366 -71.15015 3468 ft 133 kts 82°
2026-04-21 13:13 41.23414 -71.13769 3467 ft 133 kts 84°
2026-04-21 13:13 41.23461 -71.12505 3462 ft 134 kts 82°
2026-04-21 13:14 41.23542 -71.11247 3460 ft 134 kts 81°
2026-04-21 13:14 41.23644 -71.09982 3457 ft 134 kts 81°
2026-04-21 13:14 41.23730 -71.08726 3471 ft 133 kts 81°
2026-04-21 13:14 41.23822 -71.07482 3473 ft 133 kts 79°
2026-04-21 13:15 41.23935 -71.06248 3476 ft 133 kts 78°
2026-04-21 13:15 41.24079 -71.05017 3490 ft 132 kts 77°
2026-04-21 13:15 41.24244 -71.03785 3476 ft 133 kts 75°
2026-04-21 13:15 41.24438 -71.02566 3499 ft 131 kts 74°
2026-04-21 13:16 41.24648 -71.01360 3498 ft 131 kts 72°
2026-04-21 13:16 41.24891 -71.00140 3464 ft 133 kts 73°
2026-04-21 13:16 41.25061 -70.98901 3502 ft 131 kts 78°
2026-04-21 13:16 41.25196 -70.97650 3467 ft 134 kts 78°
2026-04-21 13:17 41.25354 -70.96419 3474 ft 133 kts 77°
2026-04-21 13:17 41.25495 -70.95170 3476 ft 133 kts 78°
2026-04-21 13:17 41.25654 -70.93883 3469 ft 133 kts 76°
2026-04-21 13:17 41.25847 -70.92638 3474 ft 133 kts 72°
2026-04-21 13:18 41.26109 -70.91412 3472 ft 132 kts 68°
2026-04-21 13:18 41.26454 -70.90236 3482 ft 131 kts 63°
2026-04-21 13:18 41.26785 -70.89021 3482 ft 131 kts 70°
2026-04-21 13:18 41.27024 -70.87779 3488 ft 131 kts 73°
2026-04-21 13:19 41.27220 -70.86545 3469 ft 133 kts 75°
2026-04-21 13:19 41.27419 -70.85279 3450 ft 133 kts 75°
2026-04-21 13:19 41.27626 -70.84010 3457 ft 132 kts 73°
2026-04-21 13:19 41.27882 -70.82777 3432 ft 134 kts 69°
2026-04-21 13:20 41.28198 -70.81530 3463 ft 131 kts 67°
2026-04-21 13:20 41.28563 -70.80284 3454 ft 131 kts 63°
2026-04-21 13:20 41.29000 -70.79123 3456 ft 130 kts 57°
2026-04-21 13:20 41.29369 -70.77981 3432 ft 133 kts 71°
2026-04-21 13:21 41.29516 -70.76753 3424 ft 134 kts 82°
2026-04-21 13:21 41.29380 -70.75474 3423 ft 137 kts 99°
2026-04-21 13:21 41.29166 -70.74168 3421 ft 136 kts 98°
2026-04-21 13:21 41.28933 -70.72906 3423 ft 136 kts 97°
2026-04-21 13:22 41.28711 -70.71648 3420 ft 136 kts 98°
2026-04-21 13:22 41.28490 -70.70390 3422 ft 135 kts 98°
2026-04-21 13:22 41.28274 -70.69136 3425 ft 135 kts 98°
2026-04-21 13:22 41.28058 -70.67896 3422 ft 136 kts 98°
2026-04-21 13:23 41.27853 -70.66739 3422 ft 136 kts 98°
2026-04-21 13:23 41.27641 -70.65477 3425 ft 135 kts 94°
2026-04-21 13:23 41.27478 -70.64198 3423 ft 136 kts 94°
2026-04-21 13:23 41.27306 -70.62904 3420 ft 135 kts 94°
2026-04-21 13:24 41.27131 -70.61577 3419 ft 135 kts 94°
2026-04-21 13:24 41.26966 -70.60296 3422 ft 134 kts 94°
2026-04-21 13:24 41.26805 -70.59034 3423 ft 134 kts 94°
2026-04-21 13:24 41.26635 -70.57738 3423 ft 134 kts 94°
2026-04-21 13:25 41.26471 -70.56436 3423 ft 134 kts 94°
2026-04-21 13:25 41.26309 -70.55132 3421 ft 134 kts 94°
2026-04-21 13:25 41.26146 -70.53851 3421 ft 134 kts 94°
2026-04-21 13:25 41.25981 -70.52554 3423 ft 135 kts 94°
2026-04-21 13:26 41.25814 -70.51279 3417 ft 135 kts 94°
2026-04-21 13:26 41.25645 -70.49994 3416 ft 134 kts 94°
2026-04-21 13:26 41.25478 -70.48772 3450 ft 132 kts 94°
2026-04-21 13:26 41.25311 -70.47575 3476 ft 131 kts 94°
2026-04-21 13:27 41.25146 -70.46337 3472 ft 133 kts 94°
2026-04-21 13:27 41.24979 -70.45114 3472 ft 133 kts 94°
2026-04-21 13:27 41.24814 -70.43881 3471 ft 133 kts 94°
2026-04-21 13:27 41.24649 -70.42632 3472 ft 134 kts 95°
2026-04-21 13:28 41.24530 -70.41368 3471 ft 133 kts 85°
2026-04-21 13:28 41.24604 -70.40102 3453 ft 133 kts 79°
2026-04-21 13:28 41.24762 -70.38846 3401 ft 133 kts 75°
2026-04-21 13:28 41.24928 -70.37602 3346 ft 131 kts 78°
2026-04-21 13:29 41.24992 -70.36334 3213 ft 136 kts 84°
2026-04-21 13:29 41.24987 -70.35053 3173 ft 133 kts 87°
2026-04-21 13:29 41.24933 -70.33802 3091 ft 134 kts 90°
2026-04-21 13:29 41.24792 -70.32522 3016 ft 134 kts 94°
2026-04-21 13:30 41.24611 -70.31207 2848 ft 140 kts 94°
2026-04-21 13:30 41.24486 -70.29873 2722 ft 138 kts 90°
2026-04-21 13:30 41.24423 -70.28580 2656 ft 135 kts 86°
2026-04-21 13:30 41.24437 -70.27251 2463 ft 136 kts 82°
2026-04-21 13:31 41.24519 -70.25937 2325 ft 134 kts 82°
2026-04-21 13:31 41.24485 -70.24646 2156 ft 137 kts 92°
2026-04-21 13:31 41.24234 -70.23341 1960 ft 141 kts 105°
2026-04-21 13:31 41.23747 -70.22173 1790 ft 145 kts 120°
2026-04-21 13:32 41.23060 -70.21158 1644 ft 145 kts 127°
2026-04-21 13:32 41.22335 -70.20211 1494 ft 145 kts 129°
2026-04-21 13:32 41.21611 -70.19292 1321 ft 145 kts 129°
2026-04-21 13:32 41.20926 -70.18323 1187 ft 142 kts 126°
2026-04-21 13:33 41.20279 -70.17419 1230 ft 130 kts 127°
2026-04-21 13:33 41.19738 -70.16466 1111 ft 127 kts 110°
2026-04-21 13:33 41.19557 -70.15357 945 ft 124 kts 84°
2026-04-21 13:33 41.19636 -70.14253 942 ft 113 kts 76°
2026-04-21 13:34 41.19783 -70.13290 903 ft 109 kts 65°
2026-04-21 13:34 41.20222 -70.12415 721 ft 111 kts 45°
2026-04-21 13:34 41.20676 -70.11800 617 ft 85 kts 44°
2026-04-21 13:34 41.21124 -70.11417 546 ft 69 kts 26°
2026-04-21 13:35 41.21548 -70.11171 500 ft 65 kts 26°
2026-04-21 13:35 41.21950 -70.10889 463 ft 64 kts 33°
2026-04-21 13:35 41.22274 -70.10500 446 ft 61 kts 43°
2026-04-21 13:35 41.22571 -70.10081 436 ft 60 kts 43°
2026-04-21 13:36 41.22868 -70.09679 419 ft 60 kts 44°
2026-04-21 13:36 41.23175 -70.09273 412 ft 61 kts 41°
2026-04-21 13:36 41.23507 -70.08856 400 ft 64 kts 41°
2026-04-21 13:36 41.23847 -70.08398 333 ft 67 kts 44°
2026-04-21 13:37 41.24178 -70.07932 235 ft 66 kts 43°
2026-04-21 13:37 41.24509 -70.07509 143 ft 64 kts 43°
2026-04-21 13:37 41.24828 -70.07084 60 ft 64 kts 41°
2026-04-21 13:37 41.25127 -70.06686 50 ft 52 kts 46°
2026-04-21 13:38 41.25327 -70.06432 50 ft 23 kts 41°
2026-04-21 13:38 41.25406 -70.06445 50 ft 12 kts 313°
2026-04-21 13:38 41.25475 -70.06544 50 ft 16 kts 307°
2026-04-21 13:38 41.25446 -70.06678 50 ft 8 kts 221°
2026-04-21 13:39 41.25418 -70.06669 50 ft 0 kts 135°